"startDT [UTC]","vpos","CH4 [ppm]","stdev(CH4) [ppm]","CO2 [ppm]","stdev(CO2) [ppm]","H2O_reported [%]","stdev(H2O_reported)","CavityPressure [torr]","CavityTemp [C]","OutletValve","CH4_dry [ppm]","CO2_dry [ppm]","DasTemp [C]","EtalonTemp [C]","WarmBoxTemp [C]","MPVPosition","T_ECpre [C]","T_EC1 [C]","T_EC2 [C]","p_inlet [hPa]","p_in [hPa]","p_out [hPa]","T_inlet [C]","RH_inlet [%]","dwpt_inlet [C]","T_vent [C]","RH_vent [%]","dwpt_vent [C]","flow_vent [l min-1]","flow_inlet [l min-1]","dwpt_sample [C]","T_room [C]"
2015-03-10 00:00:00,0.0,1.92649,0.00035,404.515,0.030,0.1387,0.0015,139.998,45.000,34241.59408,1.92914,405.190,33.823,45.068,45.000,0.00,0.09,-272.70,-272.75,-2,966,-3,20.4,4.4,-22.0,20.7,4.4,-21.7,5.73,2.00,-17.6,27.1
2015-03-10 00:01:00,0.0,1.92637,0.00055,404.525,0.019,0.1377,0.0019,140.003,45.000,34239.14700,1.92901,405.198,33.818,45.068,45.000,0.00,0.09,-272.70,-272.76,-3,967,-4,20.4,4.4,-22.0,20.7,4.4,-21.7,5.73,1.99,-17.6,27.1
2015-03-10 00:02:00,0.0,1.92627,0.00036,404.509,0.042,0.1377,0.0020,140.001,45.000,34236.09134,1.92887,405.181,33.810,45.068,45.000,0.00,0.09,-272.70,-272.75,-5,966,-3,20.4,4.4,-22.0,20.7,4.4,-21.8,5.73,1.99,-17.6,27.1
2015-03-10 00:03:00,0.0,1.92621,0.00025,404.489,0.028,0.1380,0.0016,140.000,45.000,34240.23195,1.92884,405.162,33.789,45.068,45.000,0.00,0.09,-272.70,-272.76,-2,966,-2,20.3,4.4,-21.9,20.7,4.4,-21.7,5.73,1.99,-17.7,27.1
2015-03-10 00:04:00,0.0,1.92626,0.00028,404.525,0.029,0.1402,0.0014,139.999,45.000,34243.27574,1.92895,405.209,33.752,45.068,45.000,0.00,0.09,-272.70,-272.76,-3,967,-1,20.3,4.5,-21.8,20.7,4.4,-21.6,5.73,2.00,-17.7,27.1
2015-03-10 00:05:00,0.0,1.92610,0.00042,404.533,0.024,0.1381,0.0013,140.001,45.000,34243.23235,1.92872,405.206,33.751,45.068,45.000,0.00,0.09,-272.70,-272.77,-2,967,-2,20.3,4.4,-21.9,20.7,4.4,-21.7,5.73,2.00,-17.7,27.1
2015-03-10 00:06:00,0.0,1.92629,0.00044,404.528,0.035,0.1373,0.0016,139.998,45.000,34241.93986,1.92888,405.196,33.750,45.068,45.000,0.00,0.09,-272.69,-272.75,-2,966,-2,20.3,4.4,-22.0,20.7,4.4,-21.7,5.73,2.00,-17.7,27.1
2015-03-10 00:07:00,0.0,1.92656,0.00039,404.563,0.031,0.1398,0.0016,140.001,45.000,34237.50102,1.92923,405.244,33.769,45.068,45.000,0.00,0.09,-272.70,-272.76,-3,967,-2,20.3,4.4,-21.9,20.7,4.4,-21.7,5.73,1.99,-17.7,27.1
2015-03-10 00:08:00,0.0,1.92650,0.00034,404.553,0.030,0.1407,0.0009,140.000,45.000,34240.46275,1.92917,405.240,33.800,45.068,45.000,0.00,0.09,-272.70,-272.76,-2,967,-2,20.3,4.5,-21.8,20.7,4.5,-21.6,5.73,2.00,-17.7,27.1
2015-03-10 00:09:00,0.0,1.92613,0.00033,404.523,0.031,0.1407,0.0015,140.000,45.000,34240.63411,1.92882,405.210,33.788,45.067,45.000,0.00,0.09,-272.70,-272.76,-2,966,-3,20.3,4.5,-21.8,20.7,4.5,-21.5,5.73,2.00,-17.7,27.0
2015-03-10 00:10:00,0.0,1.92610,0.00038,404.512,0.026,0.1382,0.0018,139.999,45.000,34240.78448,1.92872,405.186,33.759,45.067,45.000,0.00,0.09,-272.70,-272.76,-2,967,-2,20.3,4.4,-21.9,20.7,4.4,-21.7,5.73,2.01,-17.7,27.0
2015-03-10 00:11:00,0.0,1.92579,0.00027,404.503,0.032,0.1378,0.0011,139.999,45.000,34240.37582,1.92842,405.175,33.751,45.067,45.000,0.00,0.09,-272.70,-272.76,-2,967,-3,20.3,4.4,-22.0,20.6,4.4,-21.8,5.73,2.00,-17.7,27.0
2015-03-10 00:12:00,0.0,1.92592,0.00032,404.513,0.036,0.1372,0.0020,139.998,45.000,34239.64336,1.92854,405.184,33.737,45.067,45.000,0.00,0.09,-272.70,-272.76,-2,967,-2,20.3,4.4,-22.1,20.7,4.4,-21.7,5.73,2.00,-17.7,27.1
2015-03-10 00:13:00,0.0,1.92570,0.00029,404.502,0.035,0.1372,0.0016,139.999,45.000,34238.95438,1.92831,405.171,33.722,45.067,45.000,0.00,0.09,-272.70,-272.75,-2,967,-2,20.3,4.4,-22.0,20.7,4.4,-21.7,5.73,2.00,-17.7,27.0
2015-03-10 00:14:00,0.0,1.92579,0.00037,404.500,0.030,0.1385,0.0023,139.999,45.000,34241.10894,1.92843,405.177,33.747,45.068,45.000,0.00,0.09,-272.70,-272.76,-3,967,-2,20.3,4.4,-22.0,20.7,4.4,-21.8,5.73,2.00,-17.7,27.0
2015-03-10 00:15:00,0.0,1.92568,0.00042,404.479,0.036,0.1384,0.0017,140.002,45.000,34243.56041,1.92828,405.153,33.750,45.068,45.000,0.00,0.09,-272.70,-272.75,-2,967,-2,20.3,4.4,-22.0,20.7,4.4,-21.8,5.73,2.00,-17.7,27.0
2015-03-10 00:16:00,0.0,1.92604,0.00030,404.512,0.030,0.1369,0.0016,140.000,45.000,34241.49761,1.92864,405.180,33.748,45.068,45.000,0.00,0.09,-272.70,-272.75,-2,967,-2,20.3,4.4,-22.0,20.7,4.4,-21.8,5.73,2.00,-17.7,27.0
2015-03-10 00:17:00,0.0,1.92605,0.00028,404.520,0.038,0.1372,0.0026,139.998,45.000,34238.12618,1.92865,405.190,33.742,45.067,45.000,0.00,0.09,-272.70,-272.75,-2,967,-2,20.3,4.4,-22.0,20.7,4.4,-21.8,5.73,2.00,-17.7,27.0
2015-03-10 00:18:00,0.0,1.92563,0.00031,404.497,0.028,0.1382,0.0014,140.000,45.000,34237.90437,1.92827,405.170,33.721,45.068,45.000,0.00,0.09,-272.70,-272.76,-3,967,-2,20.3,4.4,-22.0,20.7,4.4,-21.8,5.73,2.00,-17.7,27.0
2015-03-10 00:19:00,0.0,1.92546,0.00038,404.488,0.033,0.1378,0.0012,139.999,45.000,34242.32468,1.92811,405.159,33.702,45.068,45.000,0.00,0.09,-272.70,-272.76,-2,967,-2,20.3,4.4,-22.0,20.7,4.4,-21.8,5.73,2.00,-17.7,27.0
2015-03-10 00:20:00,0.0,1.92526,0.00039,404.462,0.040,0.1374,0.0014,139.998,45.000,34245.79028,1.92784,405.135,33.706,45.068,45.000,0.00,0.09,-272.69,-272.76,-2,968,-2,20.3,4.4,-22.0,20.7,4.4,-21.8,5.73,1.99,-17.7,27.0
2015-03-10 00:21:00,0.0,1.92551,0.00026,404.470,0.034,0.1372,0.0016,139.999,45.000,34242.77588,1.92813,405.138,33.706,45.068,45.000,0.00,0.09,-272.70,-272.76,-2,967,-2,20.3,4.4,-22.0,20.7,4.4,-21.8,5.73,2.00,-17.7,26.9
2015-03-10 00:22:00,0.0,1.92549,0.00030,404.491,0.029,0.1373,0.0012,139.998,45.000,34237.50965,1.92809,405.162,33.714,45.068,45.000,0.00,0.09,-272.70,-272.76,-3,967,-2,20.3,4.4,-22.0,20.7,4.4,-21.8,5.73,2.01,-17.7,27.0
2015-03-10 00:23:00,0.0,1.92556,0.00040,404.456,0.028,0.1390,0.0017,140.001,45.000,34240.75350,1.92819,405.135,33.719,45.068,45.000,0.00,0.09,-272.70,-272.75,-2,967,-2,20.3,4.5,-21.9,20.7,4.4,-21.7,5.73,2.00,-17.7,27.0
2015-03-10 00:24:00,0.0,1.92542,0.00037,404.464,0.032,0.1384,0.0014,140.002,45.000,34242.19981,1.92804,405.138,33.694,45.068,45.000,0.00,0.09,-272.70,-272.76,-2,968,-2,20.3,4.5,-21.9,20.6,4.4,-21.7,5.73,2.00,-17.7,26.9
2015-03-10 00:25:00,0.0,1.92525,0.00047,404.453,0.037,0.1375,0.0017,140.002,45.000,34246.29530,1.92789,405.124,33.688,45.068,45.000,0.00,0.09,-272.70,-272.76,-2,967,-2,20.3,4.4,-22.0,20.7,4.4,-21.7,5.73,2.00,-17.7,27.0
2015-03-10 00:26:00,0.0,1.92515,0.00039,404.447,0.035,0.1372,0.0013,140.000,45.000,34246.99350,1.92774,405.115,33.688,45.068,45.000,0.00,0.09,-272.70,-272.76,-1,967,-2,20.3,4.4,-22.0,20.6,4.4,-21.8,5.73,1.99,-17.7,26.9
2015-03-10 00:27:00,0.0,1.92511,0.00040,404.448,0.030,0.1378,0.0019,139.998,45.000,34243.94698,1.92777,405.120,33.701,45.067,45.000,0.00,0.09,-272.70,-272.75,-1,968,-2,20.3,4.4,-22.0,20.6,4.4,-21.8,5.73,2.00,-17.7,26.9
2015-03-10 00:28:00,0.0,1.92534,0.00042,404.477,0.028,0.1395,0.0023,140.001,45.000,34240.19731,1.92793,405.155,33.732,45.067,45.000,0.00,0.09,-272.70,-272.76,-3,968,-2,20.2,4.5,-21.9,20.6,4.5,-21.7,5.73,2.00,-17.7,26.9
2015-03-10 00:29:00,0.0,1.92563,0.00033,404.492,0.035,0.1415,0.0018,140.002,45.000,34238.80329,1.92834,405.184,33.747,45.067,45.000,0.00,0.09,-272.70,-272.75,-2,967,-2,20.2,4.5,-21.7,20.6,4.5,-21.5,5.73,2.00,-17.7,27.0
2015-03-10 00:30:00,0.0,1.92546,0.00036,404.478,0.031,0.1419,0.0020,140.002,45.000,34239.05365,1.92816,405.172,33.750,45.067,44.999,0.00,0.09,-272.70,-272.75,-2,967,-2,20.3,4.6,-21.6,20.6,4.5,-21.5,5.73,2.00,-17.7,27.0
2015-03-10 00:31:00,0.0,1.92539,0.00022,404.461,0.041,0.1402,0.0012,139.999,45.000,34240.81028,1.92804,405.144,33.750,45.067,44.999,0.00,0.09,-272.70,-272.76,-2,968,-2,20.3,4.5,-21.7,20.6,4.5,-21.5,5.73,2.00,-17.7,26.9
2015-03-10 00:32:00,0.0,1.92570,0.00030,404.464,0.040,0.1406,0.0016,140.003,45.000,34242.42845,1.92837,405.150,33.750,45.067,45.000,0.00,0.09,-272.70,-272.76,-1,968,-2,20.3,4.5,-21.8,20.6,4.5,-21.5,5.73,2.00,-17.7,26.9
2015-03-10 00:33:00,0.0,1.92533,0.00031,404.479,0.028,0.1402,0.0021,139.996,45.000,34241.04044,1.92801,405.163,33.750,45.067,45.000,0.00,0.09,-272.69,-272.76,-2,969,-2,20.3,4.5,-21.8,20.6,4.5,-21.6,5.73,2.00,-17.7,27.0
2015-03-10 00:34:00,0.0,1.92517,0.00030,404.454,0.035,0.1415,0.0023,139.997,45.000,34239.16170,1.92785,405.143,33.750,45.067,45.000,0.00,0.09,-272.70,-272.76,-2,968,-2,20.3,4.5,-21.7,20.6,4.5,-21.5,5.73,2.00,-17.7,26.9
2015-03-10 00:35:00,0.0,1.92506,0.00033,404.493,0.031,0.1410,0.0017,139.995,45.000,34238.44350,1.92774,405.182,33.750,45.067,45.000,0.00,0.09,-272.70,-272.76,-2,966,-2,20.3,4.5,-21.7,20.6,4.5,-21.5,5.73,2.00,-17.7,26.9
2015-03-10 00:36:00,0.0,1.92569,0.00040,404.536,0.025,0.1418,0.0019,140.000,45.000,34237.37079,1.92836,405.226,33.750,45.068,45.000,0.00,0.09,-272.70,-272.75,-2,967,-3,20.2,4.5,-21.7,20.6,4.5,-21.5,5.73,2.00,-17.7,26.9
2015-03-10 00:37:00,0.0,1.92578,0.00037,404.539,0.029,0.1438,0.0013,139.998,45.000,34233.81772,1.92849,405.242,33.741,45.068,45.000,0.00,0.09,-272.70,-272.76,-4,968,-3,20.3,4.6,-21.6,20.6,4.6,-21.4,5.73,2.00,-17.7,26.9
2015-03-10 00:38:00,0.0,1.92519,0.00029,404.482,0.028,0.1441,0.0020,140.002,45.000,34234.94424,1.92797,405.184,33.729,45.068,45.000,0.00,0.09,-272.71,-272.76,-3,970,-1,20.2,4.6,-21.6,20.6,4.6,-21.4,5.73,2.00,-17.7,26.9
2015-03-10 00:39:00,0.0,1.92516,0.00031,404.499,0.031,0.1436,0.0018,140.001,45.000,34239.35905,1.92790,405.200,33.701,45.068,45.000,0.00,0.09,-272.70,-272.76,-6,968,-6,20.2,4.6,-21.6,20.6,4.6,-21.4,5.73,1.99,-17.7,26.9
2015-03-10 00:40:00,0.0,1.92521,0.00033,404.465,0.030,0.1427,0.0017,139.999,45.000,34245.22451,1.92792,405.159,33.701,45.068,45.000,0.00,0.09,-272.70,-272.76,-0,968,-0,20.2,4.6,-21.6,20.6,4.6,-21.4,5.73,2.00,-17.7,26.9
2015-03-10 00:41:00,0.0,1.92550,0.00025,404.486,0.037,0.1404,0.0018,139.998,45.000,34242.41536,1.92815,405.173,33.691,45.068,45.000,0.00,0.09,-272.71,-272.76,-1,968,-3,20.2,4.5,-21.8,20.6,4.5,-21.5,5.73,2.00,-17.7,26.9
2015-03-10 00:42:00,0.0,1.92516,0.00029,404.495,0.044,0.1393,0.0013,140.000,45.000,34240.92033,1.92783,405.174,33.688,45.068,45.000,0.00,0.09,-272.70,-272.76,-2,968,-2,20.2,4.5,-21.8,20.6,4.5,-21.6,5.73,1.99,-17.7,26.9
2015-03-10 00:43:00,0.0,1.92506,0.00029,404.466,0.034,0.1415,0.0021,140.003,45.000,34241.99918,1.92774,405.157,33.688,45.068,45.000,0.00,0.09,-272.70,-272.75,-2,968,-2,20.2,4.5,-21.7,20.6,4.5,-21.6,5.73,2.00,-17.7,26.9
2015-03-10 00:44:00,0.0,1.92502,0.00036,404.446,0.037,0.1419,0.0014,139.999,45.000,34239.85685,1.92772,405.138,33.685,45.068,45.000,0.00,0.09,-272.70,-272.75,-3,968,-3,20.2,4.5,-21.7,20.6,4.5,-21.5,5.73,2.00,-17.8,26.9
2015-03-10 00:45:00,0.0,1.92509,0.00043,404.461,0.038,0.1416,0.0014,139.996,45.000,34236.49039,1.92776,405.151,33.668,45.068,45.000,0.00,0.09,-272.70,-272.76,-3,968,-2,20.2,4.5,-21.7,20.6,4.5,-21.5,5.73,1.99,-17.7,26.9
2015-03-10 00:46:00,0.0,1.92480,0.00032,404.448,0.031,0.1421,0.0017,140.004,45.000,34243.99404,1.92752,405.143,33.648,45.068,45.000,0.00,0.09,-272.70,-272.76,-2,968,-2,20.2,4.6,-21.7,20.6,4.5,-21.5,5.73,2.00,-17.7,26.9
2015-03-10 00:47:00,0.0,1.92463,0.00041,404.423,0.029,0.1408,0.0022,139.994,45.000,34245.58970,1.92732,405.110,33.635,45.068,45.000,0.00,0.09,-272.70,-272.76,-1,968,-2,20.2,4.5,-21.7,20.6,4.5,-21.5,5.73,2.00,-17.7,26.8
2015-03-10 00:48:00,0.0,1.92474,0.00037,404.446,0.031,0.1397,0.0017,140.000,45.000,34244.12510,1.92740,405.127,33.636,45.068,45.000,0.00,0.09,-272.70,-272.76,-2,968,-2,20.2,4.5,-21.8,20.6,4.5,-21.6,5.73,2.00,-17.7,26.9
2015-03-10 00:49:00,0.0,1.92480,0.00040,404.440,0.030,0.1394,0.0017,139.996,45.000,34239.10340,1.92744,405.120,33.643,45.068,45.000,0.00,0.09,-272.70,-272.76,-3,967,-2,20.2,4.5,-21.8,20.6,4.5,-21.6,5.73,2.00,-17.8,26.9
2015-03-10 00:50:00,0.0,1.92464,0.00034,404.448,0.034,0.1401,0.0014,140.002,45.000,34239.21849,1.92732,405.132,33.627,45.068,45.000,0.00,0.09,-272.70,-272.75,-3,967,-2,20.2,4.5,-21.8,20.6,4.5,-21.6,5.73,2.00,-17.8,26.9
2015-03-10 00:51:00,0.0,1.92500,0.00032,404.458,0.040,0.1386,0.0015,140.001,45.000,34235.74725,1.92763,405.134,33.640,45.068,45.000,0.00,0.09,-272.70,-272.76,-3,967,-2,20.2,4.5,-21.9,20.5,4.5,-21.7,5.73,2.00,-17.8,26.9
2015-03-10 00:52:00,0.0,1.92470,0.00040,404.425,0.028,0.1376,0.0016,139.998,45.000,34234.99507,1.92729,405.097,33.644,45.068,45.000,0.00,0.09,-272.70,-272.76,-3,967,-2,20.2,4.4,-22.0,20.5,4.5,-21.7,5.73,1.99,-17.8,26.9
2015-03-10 00:53:00,0.0,1.92481,0.00026,404.428,0.022,0.1364,0.0015,139.999,45.000,34241.47403,1.92741,405.094,33.656,45.068,45.000,0.00,0.09,-272.70,-272.75,-2,968,-2,20.2,4.4,-22.1,20.5,4.4,-21.8,5.73,2.00,-17.7,26.9
2015-03-10 00:54:00,0.0,1.92454,0.00037,404.423,0.036,0.1369,0.0015,140.000,45.000,34243.08118,1.92713,405.090,33.671,45.068,45.000,0.00,0.09,-272.70,-272.75,-2,968,-2,20.2,4.4,-22.1,20.5,4.4,-21.8,5.73,2.00,-17.8,26.9
2015-03-10 00:55:00,0.0,1.92466,0.00043,404.433,0.031,0.1367,0.0016,140.001,45.000,34241.47482,1.92730,405.100,33.670,45.067,45.000,0.00,0.09,-272.70,-272.76,-2,968,-2,20.2,4.4,-22.0,20.5,4.4,-21.8,5.73,2.00,-17.8,26.9
2015-03-10 00:56:00,0.0,1.92467,0.00034,404.436,0.032,0.1384,0.0017,140.000,45.000,34241.74110,1.92729,405.111,33.665,45.067,45.000,0.00,0.09,-272.70,-272.76,-2,967,-2,20.2,4.5,-22.0,20.5,4.4,-21.7,5.73,2.00,-17.8,26.9
2015-03-10 00:57:00,0.0,1.92468,0.00043,404.425,0.030,0.1392,0.0015,139.997,45.000,34241.23451,1.92733,405.103,33.646,45.068,45.000,0.00,0.09,-272.70,-272.75,-2,968,-2,20.2,4.5,-21.9,20.6,4.5,-21.7,5.73,1.99,-17.8,26.9
2015-03-10 00:58:00,0.0,1.92461,0.00037,404.444,0.034,0.1397,0.0017,139.999,45.000,34242.34294,1.92722,405.125,33.644,45.068,45.000,0.00,0.09,-272.70,-272.76,-2,967,-2,20.2,4.5,-21.8,20.5,4.5,-21.6,5.73,2.00,-17.8,26.8
2015-03-10 00:59:00,0.0,1.92508,0.00031,404.473,0.035,0.1398,0.0017,140.001,45.000,34239.81507,1.92774,405.154,33.630,45.068,45.000,0.00,0.09,-272.71,-272.76,-2,967,-2,20.2,4.5,-21.8,20.5,4.5,-21.6,5.73,2.00,-17.7,26.8
2015-03-10 01:00:00,0.0,1.92487,0.00028,404.468,0.042,0.1398,0.0014,139.997,45.000,34238.77769,1.92752,405.151,33.628,45.068,45.000,0.00,0.09,-272.70,-272.75,-2,967,-2,20.2,4.5,-21.8,20.5,4.5,-21.6,5.73,2.00,-17.8,26.8
2015-03-10 01:01:00,0.0,1.92495,0.00039,404.491,0.037,0.1402,0.0019,140.001,45.000,34238.08706,1.92761,405.174,33.627,45.068,45.000,0.00,0.09,-272.70,-272.76,-3,968,-2,20.2,4.5,-21.8,20.5,4.5,-21.6,5.73,2.00,-17.8,26.8
2015-03-10 01:02:00,0.0,1.92511,0.00041,404.475,0.029,0.1393,0.0016,140.002,45.000,34237.34591,1.92776,405.154,33.632,45.068,45.000,0.00,0.09,-272.70,-272.76,-3,968,-2,20.2,4.5,-21.8,20.5,4.5,-21.6,5.73,2.00,-17.8,26.8
2015-03-10 01:03:00,0.0,1.92504,0.00044,404.462,0.026,0.1376,0.0021,139.997,45.000,34238.56462,1.92763,405.132,33.632,45.068,45.000,0.00,0.09,-272.70,-272.76,-2,968,-2,20.2,4.5,-21.9,20.5,4.5,-21.7,5.73,2.00,-17.8,26.8
2015-03-10 01:04:00,0.0,1.92500,0.00037,404.498,0.026,0.1371,0.0015,140.002,45.000,34238.95099,1.92763,405.166,33.636,45.068,45.000,0.00,0.09,-272.70,-272.75,-2,968,-2,20.2,4.4,-22.0,20.5,4.4,-21.8,5.73,2.01,-17.8,26.8
2015-03-10 01:05:00,0.0,1.92486,0.00036,404.469,0.035,0.1387,0.0013,139.998,45.000,34237.78506,1.92749,405.146,33.625,45.068,45.000,0.00,0.09,-272.71,-272.76,-2,967,-2,20.2,4.5,-22.0,20.5,4.5,-21.7,5.73,2.00,-17.8,26.8
2015-03-10 01:06:00,0.0,1.92477,0.00032,404.449,0.026,0.1378,0.0017,140.003,45.000,34239.63739,1.92738,405.123,33.608,45.068,45.000,0.00,0.09,-272.70,-272.76,-2,968,-2,20.2,4.4,-22.0,20.5,4.5,-21.7,5.73,2.00,-17.8,26.8
2015-03-10 01:07:00,0.0,1.92457,0.00032,404.436,0.039,0.1368,0.0017,139.997,45.000,34241.45636,1.92720,405.102,33.578,45.068,45.000,0.00,0.09,-272.70,-272.75,-2,968,-2,20.2,4.4,-22.1,20.5,4.4,-21.8,5.73,2.00,-17.8,26.8
2015-03-10 01:08:00,0.0,1.92483,0.00028,404.439,0.032,0.1365,0.0017,140.001,45.000,34239.76721,1.92741,405.106,33.566,45.068,45.000,0.00,0.09,-272.71,-272.76,-2,968,-2,20.2,4.4,-22.1,20.5,4.4,-21.8,5.73,2.01,-17.8,26.8
2015-03-10 01:09:00,0.0,1.92482,0.00036,404.447,0.038,0.1359,0.0020,140.000,45.000,34242.31508,1.92740,405.110,33.563,45.068,45.000,0.00,0.09,-272.70,-272.76,-2,968,-2,20.2,4.4,-22.1,20.5,4.4,-21.8,5.73,2.01,-17.8,26.8
2015-03-10 01:10:00,0.0,1.92482,0.00045,404.456,0.039,0.1374,0.0017,140.000,45.000,34237.68573,1.92742,405.126,33.560,45.068,45.000,0.00,0.09,-272.69,-272.76,-3,968,-2,20.1,4.4,-22.1,20.5,4.4,-21.8,5.73,2.00,-17.8,26.8
2015-03-10 01:11:00,0.0,1.92483,0.00036,404.465,0.043,0.1388,0.0015,139.999,45.000,34238.21598,1.92749,405.141,33.559,45.068,45.000,0.00,0.09,-272.70,-272.76,-2,968,-2,20.1,4.5,-22.0,20.5,4.5,-21.7,5.73,2.01,-17.8,26.8
2015-03-10 01:12:00,0.0,1.92464,0.00044,404.426,0.028,0.1389,0.0022,139.999,45.000,34241.27766,1.92728,405.104,33.524,45.068,45.000,0.00,0.09,-272.71,-272.76,-2,968,-2,20.1,4.5,-22.0,20.5,4.5,-21.6,5.73,2.01,-17.8,26.8
2015-03-10 01:13:00,0.0,1.92454,0.00027,404.436,0.029,0.1384,0.0018,140.000,45.000,34240.76404,1.92718,405.111,33.526,45.068,45.000,0.00,0.09,-272.70,-272.76,-2,968,-2,20.2,4.5,-21.9,20.5,4.5,-21.7,5.73,2.01,-17.8,26.8
2015-03-10 01:14:00,0.0,1.92472,0.00040,404.441,0.029,0.1405,0.0020,139.999,45.000,34240.24101,1.92737,405.125,33.527,45.068,45.000,0.00,0.09,-272.70,-272.76,-2,968,-2,20.1,4.5,-21.9,20.5,4.5,-21.6,5.73,2.01,-17.8,26.8
2015-03-10 01:15:00,0.0,1.92467,0.00042,404.462,0.026,0.1394,0.0019,140.002,45.000,34241.11803,1.92735,405.142,33.528,45.068,45.000,0.00,0.09,-272.70,-272.76,-3,967,-2,20.1,4.5,-21.9,20.5,4.5,-21.6,5.73,2.01,-17.8,26.8
2015-03-10 01:16:00,0.0,1.92456,0.00022,404.465,0.036,0.1392,0.0017,140.000,45.000,34243.84216,1.92718,405.145,33.543,45.068,45.000,0.00,0.09,-272.70,-272.76,-2,968,-2,20.1,4.5,-21.9,20.5,4.5,-21.6,5.73,2.01,-17.8,26.8
2015-03-10 01:17:00,0.0,1.92478,0.00041,404.458,0.043,0.1397,0.0013,140.002,45.000,34241.94333,1.92746,405.139,33.557,45.068,45.000,0.00,0.09,-272.70,-272.75,-2,968,-2,20.1,4.5,-21.8,20.5,4.5,-21.6,5.73,2.01,-17.8,26.8
2015-03-10 01:18:00,0.0,1.92494,0.00021,404.473,0.031,0.1403,0.0017,139.998,45.000,34238.46376,1.92758,405.156,33.557,45.068,45.000,0.00,0.09,-272.70,-272.76,-2,968,-2,20.2,4.5,-21.8,20.5,4.5,-21.6,5.73,2.00,-17.8,26.8
2015-03-10 01:19:00,0.0,1.92461,0.00032,404.440,0.037,0.1411,0.0014,140.002,45.000,34241.18062,1.92730,405.128,33.563,45.067,45.000,0.00,0.09,-272.71,-272.76,-2,968,-2,20.2,4.5,-21.8,20.5,4.6,-21.5,5.73,2.01,-17.8,26.8
2015-03-10 01:20:00,0.0,1.92472,0.00027,404.445,0.038,0.1396,0.0018,139.999,45.000,34240.20604,1.92734,405.126,33.565,45.068,45.000,0.00,0.09,-272.70,-272.75,-2,968,-2,20.1,4.5,-21.8,20.5,4.5,-21.6,5.73,2.00,-17.8,26.8
2015-03-10 01:21:00,0.0,1.92484,0.00034,404.471,0.023,0.1403,0.0017,139.998,45.000,34238.83763,1.92752,405.155,33.563,45.068,45.000,0.00,0.09,-272.70,-272.75,-2,967,-2,20.1,4.5,-21.8,20.5,4.5,-21.6,5.73,2.00,-17.8,26.8
2015-03-10 01:22:00,0.0,1.92474,0.00048,404.479,0.027,0.1405,0.0014,139.998,45.000,34238.97119,1.92741,405.165,33.564,45.068,45.000,0.00,0.09,-272.70,-272.76,-2,968,-2,20.1,4.5,-21.8,20.5,4.5,-21.6,5.73,2.00,-17.8,26.8
2015-03-10 01:23:00,0.0,1.92469,0.00042,404.455,0.026,0.1405,0.0014,140.000,45.000,34240.54479,1.92737,405.141,33.563,45.068,45.000,0.00,0.09,-272.70,-272.75,-2,968,-2,20.1,4.5,-21.8,20.5,4.5,-21.6,5.73,2.00,-17.8,26.8
2015-03-10 01:24:00,0.0,1.92483,0.00027,404.472,0.026,0.1404,0.0010,139.999,45.000,34240.21627,1.92747,405.155,33.563,45.068,45.000,0.00,0.09,-272.69,-272.75,-2,969,-2,20.1,4.5,-21.8,20.5,4.5,-21.6,5.73,2.00,-17.8,26.8
2015-03-10 01:25:00,0.0,1.92491,0.00038,404.465,0.028,0.1411,0.0017,139.997,45.000,34238.70702,1.92759,405.153,33.566,45.068,45.000,0.00,0.09,-272.70,-272.76,-2,968,-2,20.1,4.5,-21.8,20.5,4.5,-21.5,5.73,2.00,-17.8,26.7
2015-03-10 01:26:00,0.0,1.92483,0.00032,404.468,0.031,0.1406,0.0013,140.002,45.000,34239.69646,1.92750,405.154,33.576,45.068,45.000,0.00,0.09,-272.70,-272.76,-2,968,-2,20.1,4.5,-21.8,20.5,4.5,-21.5,5.73,2.00,-17.8,26.7
2015-03-10 01:27:00,0.0,1.92472,0.00034,404.458,0.050,0.1410,0.0016,140.000,45.000,34238.88564,1.92741,405.148,33.581,45.068,45.000,0.00,0.09,-272.69,-272.76,-2,968,-2,20.1,4.5,-21.8,20.5,4.5,-21.6,5.73,1.99,-17.8,26.8
2015-03-10 01:28:00,0.0,1.92464,0.00033,404.478,0.029,0.1423,0.0021,139.997,45.000,34236.72730,1.92732,405.168,33.566,45.068,45.000,0.00,0.09,-272.70,-272.76,-3,967,-2,20.1,4.6,-21.7,20.5,4.6,-21.5,5.73,1.99,-17.8,26.8
2015-03-10 01:29:00,0.0,1.92479,0.00026,404.478,0.022,0.1429,0.0017,140.001,45.000,34234.87690,1.92750,405.176,33.554,45.068,45.000,0.00,0.09,-272.70,-272.77,-3,967,-2,20.1,4.6,-21.6,20.5,4.6,-21.4,5.73,2.00,-17.8,26.7
2015-03-10 01:30:00,0.0,1.92487,0.00035,404.477,0.042,0.1423,0.0017,140.000,45.000,34233.96940,1.92758,405.169,33.532,45.068,45.000,0.00,0.09,-272.70,-272.75,-3,968,-2,20.1,4.6,-21.6,20.5,4.6,-21.4,5.73,2.00,-17.8,26.8
2015-03-10 01:31:00,0.0,1.92477,0.00041,404.461,0.027,0.1418,0.0015,139.999,45.000,34236.26355,1.92744,405.154,33.517,45.068,45.000,0.00,0.09,-272.70,-272.75,-2,968,-2,20.1,4.6,-21.7,20.5,4.6,-21.5,5.73,1.99,-17.8,26.8
2015-03-10 01:32:00,0.0,1.92498,0.00033,404.475,0.032,0.1429,0.0013,139.999,45.000,34234.70194,1.92772,405.172,33.507,45.068,45.000,0.00,0.09,-272.71,-272.76,-3,968,-2,20.1,4.6,-21.7,20.5,4.6,-21.5,5.73,1.99,-17.8,26.7
2015-03-10 01:33:00,0.0,1.92479,0.00032,404.472,0.029,0.1419,0.0015,140.000,45.000,34237.56749,1.92744,405.164,33.498,45.068,45.000,0.00,0.09,-272.70,-272.75,-2,968,-2,20.1,4.6,-21.6,20.5,4.6,-21.4,5.73,1.99,-17.8,26.7
2015-03-10 01:34:00,0.0,1.92502,0.00040,404.497,0.017,0.1434,0.0013,140.001,45.000,34234.01466,1.92776,405.197,33.465,45.068,45.000,0.00,0.09,-272.70,-272.75,-2,968,-2,20.1,4.6,-21.6,20.4,4.6,-21.4,5.73,1.99,-17.8,26.7
2015-03-10 01:35:00,0.0,1.92496,0.00027,404.474,0.036,0.1428,0.0018,139.999,45.000,34233.71661,1.92767,405.171,33.446,45.068,45.001,0.00,0.09,-272.71,-272.76,-3,968,-2,20.1,4.6,-21.6,20.4,4.6,-21.4,5.73,1.99,-17.8,26.7
2015-03-10 01:36:00,0.0,1.92506,0.00032,404.465,0.042,0.1432,0.0015,139.998,45.000,34231.98295,1.92779,405.163,33.442,45.068,45.000,0.00,0.09,-272.70,-272.76,-3,968,-2,20.0,4.6,-21.6,20.4,4.6,-21.4,5.73,2.00,-17.8,26.7
2015-03-10 01:37:00,0.0,1.92504,0.00052,404.484,0.047,0.1428,0.0014,139.998,45.000,34233.41545,1.92775,405.182,33.438,45.068,45.001,0.00,0.09,-272.69,-272.75,-2,969,-2,20.0,4.6,-21.6,20.5,4.6,-21.4,5.73,1.99,-17.8,26.7
2015-03-10 01:38:00,0.0,1.92482,0.00028,404.489,0.026,0.1438,0.0013,139.999,45.000,34235.42923,1.92757,405.189,33.406,45.068,45.000,0.00,0.09,-272.69,-272.76,-2,968,-2,20.0,4.7,-21.6,20.4,4.6,-21.4,5.73,1.99,-17.8,26.7
2015-03-10 01:39:00,0.0,1.92484,0.00036,404.469,0.025,0.1434,0.0014,139.998,45.000,34233.83621,1.92755,405.168,33.423,45.068,45.000,0.00,0.09,-272.71,-272.76,-3,968,-2,20.1,4.7,-21.6,20.4,4.6,-21.3,5.73,1.99,-17.8,26.7
2015-03-10 01:40:00,0.0,1.92472,0.00039,404.459,0.037,0.1423,0.0018,140.000,45.000,34236.38895,1.92741,405.154,33.411,45.068,45.000,0.00,0.09,-272.70,-272.75,-2,968,-2,20.1,4.6,-21.6,20.5,4.6,-21.4,5.73,2.00,-17.8,26.7
2015-03-10 01:41:00,0.0,1.92472,0.00033,404.475,0.023,0.1424,0.0012,140.001,45.000,34235.70638,1.92745,405.168,33.418,45.068,45.000,0.00,0.09,-272.70,-272.76,-3,968,-2,20.0,4.6,-21.7,20.4,4.6,-21.4,5.73,2.00,-17.8,26.7
2015-03-10 01:42:00,0.0,1.92475,0.00028,404.467,0.028,0.1431,0.0020,139.999,45.000,34234.16250,1.92746,405.166,33.438,45.068,45.000,0.00,0.09,-272.70,-272.77,-2,968,-2,20.1,4.6,-21.7,20.4,4.6,-21.4,5.73,2.00,-17.8,26.7
2015-03-10 01:43:00,0.0,1.92494,0.00048,404.500,0.034,0.1433,0.0012,140.001,45.000,34235.51877,1.92766,405.199,33.449,45.068,45.000,0.00,0.09,-272.70,-272.76,-2,968,-2,20.0,4.6,-21.6,20.4,4.6,-21.4,5.73,2.00,-17.8,26.7
2015-03-10 01:44:00,0.0,1.92483,0.00036,404.501,0.032,0.1424,0.0015,140.001,45.000,34234.79455,1.92753,405.196,33.489,45.067,45.000,0.00,0.09,-272.70,-272.76,-2,968,-2,20.0,4.6,-21.7,20.4,4.6,-21.5,5.73,2.01,-17.8,26.7
2015-03-10 01:45:00,0.0,1.92494,0.00041,404.463,0.027,0.1423,0.0024,140.004,45.000,34236.84099,1.92766,405.157,33.478,45.067,44.999,0.00,0.09,-272.70,-272.76,-2,968,-2,20.0,4.6,-21.7,20.4,4.6,-21.4,5.73,2.01,-17.8,26.8
2015-03-10 01:46:00,0.0,1.92491,0.00038,404.468,0.033,0.1428,0.0017,139.998,45.000,34235.91182,1.92762,405.164,33.471,45.067,44.999,0.00,0.09,-272.70,-272.76,-2,968,-2,20.0,4.6,-21.7,20.4,4.6,-21.4,5.73,2.01,-17.8,26.7